^^
Saratoga-Weather Station Historical Data
Daily Summary for May 12, 2022 Units:  Metric    English   Both
Daily Weekly Monthly Yearly Custom
  High: Low: Average:
Temperature: 22.2 °C 13.4 °C 17.9 °C
Dew Point: 12.1 °C 10.2 °C 11.2 °C
Humidity: 83% 50% 66%
Wind Speed: 17.7km/h 0km/h 6.1km/h
Wind Gust: 25.7km/h - -
Wind- - West
Pressure: 1019.0 hPa 1012.2 hPa -
Precipitation: 0.0 mm    
Historical Graphs
 
 
Tabular Data for May 12, 2022
Time Temperature Dew Point Pressure Wind Wind Speed Wind Gust Humidity Rainfall Rate (Hourly) solar
00:01 19.7 °C 10.4 °C 1012.2 hPa Calm   8 km/h 55% 0.0 mm 0 W/m2
00:06 19.6 °C 10.6 °C 1012.2 hPa West 4.7 km/h 17.7 km/h 56% 0.0 mm 0 W/m2
00:11 19.5 °C 10.5 °C 1012.2 hPa West 4.7 km/h 11.3 km/h 56% 0.0 mm 0 W/m2
00:16 19.4 °C 10.7 °C 1012.2 hPa West 4.7 km/h 9.7 km/h 57% 0.0 mm 0 W/m2
00:21 19.2 °C 10.5 °C 1012.2 hPa WNW 3.2 km/h 16.1 km/h 57% 0.0 mm 0 W/m2
00:26 19.1 °C 10.6 °C 1012.5 hPa WSW 7.9 km/h 12.9 km/h 58% 0.0 mm 0 W/m2
00:31 19 °C 10.8 °C 1012.5 hPa West 9.7 km/h 14.5 km/h 59% 0.0 mm 0 W/m2
00:36 18.9 °C 10.7 °C 1012.5 hPa West 3.2 km/h 12.9 km/h 59% 0.0 mm 0 W/m2
00:41 18.8 °C 11.1 °C 1012.5 hPa West 6.4 km/h 11.3 km/h 61% 0.0 mm 0 W/m2
00:46 18.7 °C 11 °C 1012.5 hPa West 13 km/h 12.9 km/h 61% 0.0 mm 0 W/m2
00:51 18.7 °C 11.3 °C 1012.5 hPa West 3.2 km/h 12.9 km/h 62% 0.0 mm 0 W/m2
00:56 18.6 °C 11.4 °C 1012.5 hPa West 6.4 km/h 11.3 km/h 63% 0.0 mm 0 W/m2
01:01 18.5 °C 11.6 °C 1012.9 hPa West 11.1 km/h 11.3 km/h 64% 0.0 mm 0 W/m2
01:06 18.4 °C 11.5 °C 1012.9 hPa West 6.4 km/h 17.7 km/h 64% 0.0 mm 0 W/m2
01:11 18.3 °C 11.6 °C 1012.9 hPa West 3.2 km/h 12.9 km/h 65% 0.0 mm 0 W/m2
01:16 18.2 °C 11.5 °C 1012.9 hPa WNW 9.7 km/h 17.7 km/h 65% 0.0 mm 0 W/m2
01:22 18.1 °C 11.6 °C 1012.9 hPa West 3.2 km/h 8 km/h 66% 0.0 mm 0 W/m2
01:27 17.9 °C 11.7 °C 1012.9 hPa West 6.4 km/h 11.3 km/h 67% 0.0 mm 0 W/m2
01:32 17.9 °C 11.7 °C 1013.2 hPa SW 4.7 km/h 12.9 km/h 67% 0.0 mm 0 W/m2
01:37 17.8 °C 11.8 °C 1013.2 hPa West 6.4 km/h 11.3 km/h 68% 0.0 mm 0 W/m2
01:42 17.8 °C 11.8 °C 1013.2 hPa WNW 11.1 km/h 12.9 km/h 68% 0.0 mm 0 W/m2
01:47 17.7 °C 11.7 °C 1013.2 hPa West 16.3 km/h 16.1 km/h 68% 0.0 mm 0 W/m2
01:52 17.7 °C 11.9 °C 1013.2 hPa WNW 4.7 km/h 6.4 km/h 69% 0.0 mm 0 W/m2
01:57 17.6 °C 11.8 °C 1013.5 hPa West 9.7 km/h 14.5 km/h 69% 0.0 mm 0 W/m2
02:02 17.6 °C 12.1 °C 1013.2 hPa West 11.1 km/h 16.1 km/h 70% 0.0 mm 0 W/m2
02:07 17.4 °C 11.9 °C 1013.5 hPa WSW 4.7 km/h 12.9 km/h 70% 0.0 mm 0 W/m2
02:12 17.3 °C 12 °C 1013.5 hPa West 14.3 km/h 14.5 km/h 71% 0.0 mm 0 W/m2
02:17 17.3 °C 12 °C 1013.5 hPa WSW 7.9 km/h 12.9 km/h 71% 0.0 mm 0 W/m2
02:22 17.2 °C 11.9 °C 1013.5 hPa West 4.7 km/h 11.3 km/h 71% 0.0 mm 0 W/m2
02:27 17.2 °C 12.1 °C 1013.9 hPa WNW 4.7 km/h 12.9 km/h 72% 0.0 mm 0 W/m2
02:32 17 °C 11.9 °C 1013.9 hPa WNW 7.9 km/h 9.7 km/h 72% 0.0 mm 0 W/m2
02:37 16.9 °C 11.8 °C 1013.9 hPa Calm   12.9 km/h 72% 0.0 mm 0 W/m2
02:42 16.8 °C 11.9 °C 1013.9 hPa WSW 3.2 km/h 4.8 km/h 73% 0.0 mm 0 W/m2
02:47 16.7 °C 11.8 °C 1013.9 hPa West 4.7 km/h 11.3 km/h 73% 0.0 mm 0 W/m2
02:52 16.7 °C 11.8 °C 1013.9 hPa WNW 4.7 km/h 8 km/h 73% 0.0 mm 0 W/m2
02:57 16.6 °C 11.9 °C 1013.9 hPa WSW 3.2 km/h 11.3 km/h 74% 0.0 mm 0 W/m2
03:02 16.4 °C 11.8 °C 1014.2 hPa WNW 1.4 km/h 6.4 km/h 74% 0.0 mm 0 W/m2
03:07 16.3 °C 11.9 °C 1014.2 hPa WNW 4.7 km/h 4.8 km/h 75% 0.0 mm 0 W/m2
03:12 16.3 °C 11.9 °C 1014.2 hPa WSW 1.4 km/h 6.4 km/h 75% 0.0 mm 0 W/m2
03:17 16.2 °C 12 °C 1014.6 hPa WNW 3.2 km/h 4.8 km/h 76% 0.0 mm 0 W/m2
03:22 16.2 °C 12 °C 1014.2 hPa West 4.7 km/h 4.8 km/h 76% 0.0 mm 0 W/m2
03:27 16.1 °C 11.9 °C 1014.2 hPa WSW 6.4 km/h 6.4 km/h 76% 0.0 mm 0 W/m2
03:32 16.1 °C 11.9 °C 1014.6 hPa WNW 4.7 km/h 6.4 km/h 76% 0.0 mm 0 W/m2
03:37 16 °C 12 °C 1014.6 hPa West 6.4 km/h 12.9 km/h 77% 0.0 mm 0 W/m2
03:42 15.9 °C 11.9 °C 1014.6 hPa West 3.2 km/h 9.7 km/h 77% 0.0 mm 0 W/m2
03:47 15.8 °C 11.8 °C 1014.6 hPa WSW 13 km/h 12.9 km/h 77% 0.0 mm 0 W/m2
03:52 15.7 °C 11.7 °C 1014.6 hPa SW 9.7 km/h 11.3 km/h 77% 0.0 mm 0 W/m2
03:57 15.7 °C 11.9 °C 1014.6 hPa NW 4.7 km/h 12.9 km/h 78% 0.0 mm 0 W/m2
04:02 15.6 °C 11.8 °C 1014.6 hPa West 6.4 km/h 14.5 km/h 78% 0.0 mm 0 W/m2
04:07 15.6 °C 11.6 °C 1014.6 hPa SW 6.4 km/h 12.9 km/h 77% 0.0 mm 0 W/m2
04:12 15.6 °C 11.6 °C 1014.6 hPa WSW 1.4 km/h 9.7 km/h 77% 0.0 mm 0 W/m2
04:17 15.4 °C 11.6 °C 1014.9 hPa Calm   11.3 km/h 78% 0.0 mm 0 W/m2
04:22 15.3 °C 11.7 °C 1014.9 hPa Calm   3.2 km/h 79% 0.0 mm 0 W/m2
04:27 15.2 °C 11.6 °C 1014.9 hPa South 1.4 km/h 4.8 km/h 79% 0.0 mm 0 W/m2
04:32 15.1 °C 11.7 °C 1014.9 hPa Calm   1.6 km/h 80% 0.0 mm 0 W/m2
04:37 14.9 °C 11.5 °C 1014.9 hPa ESE 1.4 km/h 4.8 km/h 80% 0.0 mm 0 W/m2
04:42 14.8 °C 11.6 °C 1015.2 hPa SSE 3.2 km/h 3.2 km/h 81% 0.0 mm 0 W/m2
04:47 14.6 °C 11.4 °C 1015.2 hPa Calm   1.6 km/h 81% 0.0 mm 0 W/m2
04:52 14.4 °C 11.4 °C 1015.2 hPa Calm   3.2 km/h 82% 0.0 mm 0 W/m2
04:57 14.4 °C 11.4 °C 1015.2 hPa WNW 1.4 km/h 4.8 km/h 82% 0.0 mm 0 W/m2
05:02 14.3 °C 11.3 °C 1015.2 hPa Calm   6.4 km/h 82% 0.0 mm 0 W/m2
05:07 14.3 °C 11.3 °C 1015.6 hPa WSW 6.4 km/h 6.4 km/h 82% 0.0 mm 0 W/m2
05:17 14.3 °C 11.3 °C 1015.6 hPa Calm   4.8 km/h 82% 0.0 mm 0 W/m2
05:22 14.2 °C 11.4 °C 1015.6 hPa Calm   4.8 km/h 83% 0.0 mm 0 W/m2
05:27 14.2 °C 11.4 °C 1015.6 hPa WNW 4.7 km/h 9.7 km/h 83% 0.0 mm 0 W/m2
05:32 14.2 °C 11.2 °C 1015.9 hPa WNW 4.7 km/h 12.9 km/h 82% 0.0 mm 0 W/m2
05:37 14.2 °C 11 °C 1015.9 hPa West 13 km/h 12.9 km/h 81% 0.0 mm 0 W/m2
05:42 14.1 °C 10.9 °C 1015.9 hPa SW 6.4 km/h 14.5 km/h 81% 0.0 mm 0 W/m2
05:47 14.1 °C 10.7 °C 1015.9 hPa WNW 13 km/h 17.7 km/h 80% 0.0 mm 0 W/m2
05:52 14 °C 10.6 °C 1016.3 hPa West 11.1 km/h 11.3 km/h 80% 0.0 mm 0 W/m2
05:57 13.9 °C 10.5 °C 1016.3 hPa West 4.7 km/h 17.7 km/h 80% 0.0 mm 0 W/m2
06:02 13.8 °C 10.6 °C 1016.3 hPa West 4.7 km/h 6.4 km/h 81% 0.0 mm 5 W/m2
06:07 13.8 °C 10.6 °C 1016.3 hPa WNW 3.2 km/h 9.7 km/h 81% 0.0 mm 7 W/m2
06:12 13.7 °C 10.7 °C 1016.3 hPa West 4.7 km/h 6.4 km/h 82% 0.0 mm 9 W/m2
06:17 13.6 °C 10.6 °C 1016.3 hPa West 3.2 km/h 12.9 km/h 82% 0.0 mm 12 W/m2
06:22 13.6 °C 10.8 °C 1016.3 hPa WSW 14.3 km/h 14.5 km/h 83% 0.0 mm 14 W/m2
06:27 13.5 °C 10.7 °C 1016.6 hPa West 9.7 km/h 12.9 km/h 83% 0.0 mm 16 W/m2
06:32 13.5 °C 10.7 °C 1016.6 hPa SW 6.4 km/h 12.9 km/h 83% 0.0 mm 19 W/m2
06:37 13.5 °C 10.7 °C 1016.6 hPa West 9.7 km/h 12.9 km/h 83% 0.0 mm 21 W/m2
06:42 13.5 °C 10.7 °C 1016.6 hPa WNW 9.7 km/h 14.5 km/h 83% 0.0 mm 25 W/m2
06:47 13.4 °C 10.6 °C 1016.9 hPa WSW 7.9 km/h 14.5 km/h 83% 0.0 mm 26 W/m2
06:52 13.4 °C 10.6 °C 1016.9 hPa WNW 7.9 km/h 12.9 km/h 83% 0.0 mm 26 W/m2
06:57 13.4 °C 10.6 °C 1016.9 hPa West 9.7 km/h 12.9 km/h 83% 0.0 mm 30 W/m2
07:02 13.4 °C 10.6 °C 1016.9 hPa WNW 4.7 km/h 11.3 km/h 83% 0.0 mm 30 W/m2
07:07 13.4 °C 10.6 °C 1017.3 hPa West 11.1 km/h 11.3 km/h 83% 0.0 mm 33 W/m2
07:12 13.5 °C 10.7 °C 1017.3 hPa West 9.7 km/h 12.9 km/h 83% 0.0 mm 35 W/m2
07:17 13.5 °C 10.7 °C 1017.3 hPa NW 4.7 km/h 9.7 km/h 83% 0.0 mm 39 W/m2
07:22 13.5 °C 10.7 °C 1017.3 hPa WNW 4.7 km/h 6.4 km/h 83% 0.0 mm 42 W/m2
07:27 13.6 °C 10.8 °C 1017.6 hPa WSW 6.4 km/h 11.3 km/h 83% 0.0 mm 44 W/m2
07:32 13.6 °C 10.8 °C 1017.6 hPa WNW 16.3 km/h 16.1 km/h 83% 0.0 mm 54 W/m2
07:37 13.6 °C 10.8 °C 1017.6 hPa West 4.7 km/h 14.5 km/h 83% 0.0 mm 63 W/m2
07:42 13.6 °C 10.8 °C 1017.6 hPa WNW 6.4 km/h 11.3 km/h 83% 0.0 mm 72 W/m2
07:47 13.6 °C 10.8 °C 1017.6 hPa WNW 4.7 km/h 11.3 km/h 83% 0.0 mm 79 W/m2
07:52 13.7 °C 10.9 °C 1017.6 hPa SW 7.9 km/h 11.3 km/h 83% 0.0 mm 60 W/m2
07:57 13.7 °C 10.9 °C 1017.6 hPa West 6.4 km/h 11.3 km/h 83% 0.0 mm 39 W/m2
08:02 13.7 °C 10.9 °C 1018.0 hPa West 9.7 km/h 11.3 km/h 83% 0.0 mm 51 W/m2
08:07 13.7 °C 10.9 °C 1018.0 hPa WNW 11.1 km/h 12.9 km/h 83% 0.0 mm 53 W/m2
08:12 13.8 °C 11 °C 1018.0 hPa West 1.4 km/h 11.3 km/h 83% 0.0 mm 91 W/m2
08:17 14.1 °C 11.3 °C 1018.0 hPa WNW 11.1 km/h 14.5 km/h 83% 0.0 mm 144 W/m2
08:22 14.3 °C 11.1 °C 1018.0 hPa West 6.4 km/h 19.3 km/h 81% 0.0 mm 97 W/m2
08:27 14.5 °C 11.1 °C 1018.0 hPa West 6.4 km/h 11.3 km/h 80% 0.0 mm 114 W/m2
08:32 14.6 °C 11 °C 1018.3 hPa NW 9.7 km/h 16.1 km/h 79% 0.0 mm 120 W/m2
08:37 14.6 °C 11 °C 1018.3 hPa SW 4.7 km/h 8 km/h 79% 0.0 mm 135 W/m2
08:42 14.7 °C 10.9 °C 1018.3 hPa West 6.4 km/h 12.9 km/h 78% 0.0 mm 123 W/m2
08:47 14.7 °C 10.9 °C 1018.3 hPa NW 4.7 km/h 6.4 km/h 78% 0.0 mm 158 W/m2
08:52 14.8 °C 10.6 °C 1018.3 hPa NW 3.2 km/h 12.9 km/h 76% 0.0 mm 179 W/m2
08:57 15 °C 10.4 °C 1018.3 hPa WSW 6.4 km/h 12.9 km/h 74% 0.0 mm 181 W/m2
09:02 15.2 °C 10.6 °C 1018.6 hPa WNW 3.2 km/h 11.3 km/h 74% 0.0 mm 172 W/m2
09:07 15.2 °C 10.2 °C 1018.6 hPa WNW 4.7 km/h 11.3 km/h 72% 0.0 mm 165 W/m2
09:12 15.1 °C 10.5 °C 1018.6 hPa NW 6.4 km/h 9.7 km/h 74% 0.0 mm 172 W/m2
09:17 15.2 °C 10.4 °C 1018.6 hPa West 6.4 km/h 9.7 km/h 73% 0.0 mm 155 W/m2
09:22 15.3 °C 10.5 °C 1018.6 hPa WNW 11.1 km/h 17.7 km/h 73% 0.0 mm 134 W/m2
09:27 15.4 °C 10.6 °C 1018.6 hPa WSW 7.9 km/h 11.3 km/h 73% 0.0 mm 123 W/m2
09:32 15.7 °C 10.5 °C 1018.6 hPa WSW 6.4 km/h 12.9 km/h 71% 0.0 mm 100 W/m2
09:37 15.9 °C 10.4 °C 1018.6 hPa West 11.1 km/h 16.1 km/h 70% 0.0 mm 90 W/m2
09:42 16.1 °C 10.6 °C 1018.6 hPa WSW 6.4 km/h 12.9 km/h 70% 0.0 mm 132 W/m2
09:47 16.1 °C 10.4 °C 1018.6 hPa West 6.4 km/h 11.3 km/h 69% 0.0 mm 207 W/m2
09:52 16.3 °C 10.8 °C 1018.6 hPa West 3.2 km/h 12.9 km/h 70% 0.0 mm 239 W/m2
09:57 16.3 °C 10.8 °C 1018.6 hPa West 9.7 km/h 12.9 km/h 70% 0.0 mm 239 W/m2
10:02 16.4 °C 11.1 °C 1019.0 hPa SW 6.4 km/h 11.3 km/h 71% 0.0 mm 190 W/m2
10:07 16.5 °C 11.2 °C 1018.6 hPa WNW 3.2 km/h 9.7 km/h 71% 0.0 mm 619 W/m2
10:12 16.7 °C 11.4 °C 1019.0 hPa West 6.4 km/h 16.1 km/h 71% 0.0 mm 619 W/m2
10:17 16.9 °C 11.2 °C 1018.6 hPa WNW 11.1 km/h 16.1 km/h 69% 0.0 mm 619 W/m2
10:22 16.9 °C 11.2 °C 1018.6 hPa NW 6.4 km/h 11.3 km/h 69% 0.0 mm 624 W/m2
10:27 17.1 °C 11.4 °C 1018.6 hPa WSW 11.1 km/h 17.7 km/h 69% 0.0 mm 624 W/m2
10:32 17.1 °C 11.1 °C 1019.0 hPa SW 7.9 km/h 19.3 km/h 68% 0.0 mm 635 W/m2
10:37 17.2 °C 11.5 °C 1019.0 hPa SW 4.7 km/h 17.7 km/h 69% 0.0 mm 647 W/m2
10:42 17.3 °C 11.6 °C 1019.0 hPa WSW 7.9 km/h 17.7 km/h 69% 0.0 mm 656 W/m2
10:47 17.4 °C 11.2 °C 1019.0 hPa West 3.2 km/h 16.1 km/h 67% 0.0 mm 673 W/m2
10:52 17.7 °C 11.7 °C 1018.6 hPa NW 4.7 km/h 9.7 km/h 68% 0.0 mm 694 W/m2
10:57 17.7 °C 11.5 °C 1018.6 hPa West 6.4 km/h 17.7 km/h 67% 0.0 mm 635 W/m2
11:02 17.8 °C 11.6 °C 1018.6 hPa West 13 km/h 16.1 km/h 67% 0.0 mm 719 W/m2
11:07 17.9 °C 11.5 °C 1018.6 hPa WNW 11.1 km/h 11.3 km/h 66% 0.0 mm 698 W/m2
11:12 18.2 °C 11.3 °C 1018.6 hPa NW 4.7 km/h 12.9 km/h 64% 0.0 mm 737 W/m2
11:17 18.2 °C 11 °C 1019.0 hPa NW 3.2 km/h 12.9 km/h 63% 0.0 mm 761 W/m2
11:22 18.5 °C 11.6 °C 1019.0 hPa West 16.3 km/h 16.1 km/h 64% 0.0 mm 772 W/m2
11:27 18.5 °C 11.6 °C 1018.6 hPa ENE 1.4 km/h 3.2 km/h 64% 0.0 mm 786 W/m2
11:32 18.7 °C 11.3 °C 1018.6 hPa NW 4.7 km/h 11.3 km/h 62% 0.0 mm 821 W/m2
11:37 18.8 °C 11.6 °C 1018.6 hPa West 6.4 km/h 14.5 km/h 63% 0.0 mm 833 W/m2
11:42 19 °C 11.6 °C 1018.6 hPa WNW 11.1 km/h 16.1 km/h 62% 0.0 mm 824 W/m2
11:47 19.3 °C 11.8 °C 1018.6 hPa WSW 7.9 km/h 17.7 km/h 62% 0.0 mm 861 W/m2
11:52 19.2 °C 11.7 °C 1018.6 hPa WNW 7.9 km/h 12.9 km/h 62% 0.0 mm 163 W/m2
11:57 19.1 °C 11.9 °C 1018.6 hPa West 11.1 km/h 17.7 km/h 63% 0.0 mm 877 W/m2
12:02 19.1 °C 11.9 °C 1018.6 hPa WSW 6.4 km/h 17.7 km/h 63% 0.0 mm 336 W/m2
12:07 18.9 °C 11.5 °C 1018.6 hPa NW 1.4 km/h 14.5 km/h 62% 0.0 mm 199 W/m2
12:12 18.8 °C 11.4 °C 1018.6 hPa West 4.7 km/h 17.7 km/h 62% 0.0 mm 461 W/m2
12:17 18.8 °C 11.1 °C 1018.6 hPa West 13 km/h 16.1 km/h 61% 0.0 mm 218 W/m2
12:22 18.9 °C 11.5 °C 1018.6 hPa WSW 1.4 km/h 6.4 km/h 62% 0.0 mm 902 W/m2
12:27 19.3 °C 11.3 °C 1018.6 hPa West 4.7 km/h 12.9 km/h 60% 0.0 mm 935 W/m2
12:32 19.7 °C 11.2 °C 1018.6 hPa West 1.4 km/h 12.9 km/h 58% 0.0 mm 902 W/m2
12:37 19.9 °C 11.4 °C 1018.6 hPa WSW 6.4 km/h 14.5 km/h 58% 0.0 mm 325 W/m2
12:42 20 °C 11.7 °C 1018.6 hPa South 7.9 km/h 11.3 km/h 59% 0.0 mm 752 W/m2
12:47 20.1 °C 11.8 °C 1018.6 hPa WSW 11.1 km/h 14.5 km/h 59% 0.0 mm 854 W/m2
12:52 19.9 °C 11.4 °C 1018.6 hPa NW 16.3 km/h 20.9 km/h 58% 0.0 mm 1020 W/m2
12:57 19.8 °C 11 °C 1018.3 hPa WNW 11.1 km/h 17.7 km/h 57% 0.0 mm 937 W/m2
13:02 20 °C 11 °C 1018.3 hPa West 4.7 km/h 9.7 km/h 56% 0.0 mm 1027 W/m2
13:07 20.1 °C 11 °C 1018.3 hPa NW 3.2 km/h 14.5 km/h 56% 0.0 mm 255 W/m2
13:12 20.1 °C 10.8 °C 1018.3 hPa WNW 1.4 km/h 17.7 km/h 55% 0.0 mm 947 W/m2
13:17 20.1 °C 10.8 °C 1018.3 hPa West 13 km/h 17.7 km/h 55% 0.0 mm 200 W/m2
13:22 20.1 °C 11 °C 1018.3 hPa WNW 3.2 km/h 16.1 km/h 56% 0.0 mm 928 W/m2
13:27 20.4 °C 11.1 °C 1018.6 hPa West 17.7 km/h 25.7 km/h 55% 0.0 mm 1025 W/m2
13:32 20.1 °C 10.8 °C 1018.3 hPa NNW 1.4 km/h 11.3 km/h 55% 0.0 mm 1023 W/m2
13:37 20.2 °C 10.9 °C 1018.3 hPa NW 6.4 km/h 14.5 km/h 55% 0.0 mm 976 W/m2
13:42 20.4 °C 11.6 °C 1018.3 hPa WNW 14.3 km/h 17.7 km/h 57% 0.0 mm 1002 W/m2
13:47 20.3 °C 11 °C 1018.3 hPa WNW 13 km/h 19.3 km/h 55% 0.0 mm 1002 W/m2
13:53 20.1 °C 11 °C 1018.3 hPa WNW 4.7 km/h 14.5 km/h 56% 0.0 mm 703 W/m2
13:58 20.5 °C 11.1 °C 1018.0 hPa WSW 4.7 km/h 20.9 km/h 55% 0.0 mm 972 W/m2
14:03 20.6 °C 11.2 °C 1018.0 hPa WSW 7.9 km/h 16.1 km/h 55% 0.0 mm 851 W/m2
14:08 20.4 °C 11.3 °C 1018.0 hPa NNW 7.9 km/h 20.9 km/h 56% 0.0 mm 949 W/m2
14:13 20.6 °C 11.2 °C 1018.0 hPa NW 6.4 km/h 14.5 km/h 55% 0.0 mm 974 W/m2
14:18 20.4 °C 11.3 °C 1018.0 hPa NW 14.3 km/h 14.5 km/h 56% 0.0 mm 847 W/m2
14:23 20.3 °C 11.2 °C 1018.0 hPa West 3.2 km/h 12.9 km/h 56% 0.0 mm 234 W/m2
14:28 20.6 °C 11.8 °C 1018.0 hPa WSW 3.2 km/h 8 km/h 57% 0.0 mm 786 W/m2
14:33 20.9 °C 11 °C 1018.0 hPa WNW 11.1 km/h 14.5 km/h 53% 0.0 mm 881 W/m2
14:38 21 °C 11.6 °C 1018.0 hPa NW 7.9 km/h 8 km/h 55% 0.0 mm 900 W/m2
14:43 21 °C 11.6 °C 1018.0 hPa NW 3.2 km/h 6.4 km/h 55% 0.0 mm 954 W/m2
14:48 21.4 °C 11.4 °C 1018.0 hPa NW 4.7 km/h 12.9 km/h 53% 0.0 mm 884 W/m2
14:53 21.3 °C 11 °C 1018.0 hPa WNW 6.4 km/h 14.5 km/h 52% 0.0 mm 972 W/m2
14:58 21.2 °C 10.7 °C 1018.0 hPa WSW 7.9 km/h 12.9 km/h 51% 0.0 mm 1009 W/m2
15:03 21.3 °C 11 °C 1017.6 hPa WNW 1.4 km/h 11.3 km/h 52% 0.0 mm 1013 W/m2
15:08 21.7 °C 11.4 °C 1018.0 hPa SW 6.4 km/h 8 km/h 52% 0.0 mm 1009 W/m2
15:13 22.2 °C 11.6 °C 1017.6 hPa NNW 4.7 km/h 16.1 km/h 51% 0.0 mm 807 W/m2
15:18 22.1 °C 11.2 °C 1018.0 hPa WSW 4.7 km/h 16.1 km/h 50% 0.0 mm 687 W/m2
15:23 21.8 °C 10.9 °C 1017.6 hPa WNW 11.1 km/h 16.1 km/h 50% 0.0 mm 694 W/m2
15:33 21.6 °C 11.6 °C 1017.6 hPa SW 3.2 km/h 6.4 km/h 53% 0.0 mm 496 W/m2
15:38 21.7 °C 11.4 °C 1017.6 hPa WSW 3.2 km/h 12.9 km/h 52% 0.0 mm 608 W/m2
15:43 21.7 °C 11.4 °C 1017.6 hPa NW 4.7 km/h 14.5 km/h 52% 0.0 mm 526 W/m2
15:48 21.7 °C 11.1 °C 1017.6 hPa West 4.7 km/h 12.9 km/h 51% 0.0 mm 589 W/m2
15:53 21.6 °C 11 °C 1017.6 hPa West 3.2 km/h 8 km/h 51% 0.0 mm 585 W/m2
15:58 21.5 °C 10.9 °C 1017.3 hPa ENE 9.7 km/h 14.5 km/h 51% 0.0 mm 963 W/m2
16:03 21.7 °C 11.1 °C 1017.6 hPa WSW 11.1 km/h 12.9 km/h 51% 0.0 mm 784 W/m2
16:08 21.6 °C 11.3 °C 1017.6 hPa WNW 6.4 km/h 9.7 km/h 52% 0.0 mm 267 W/m2
16:13 21.5 °C 11.2 °C 1017.6 hPa West 9.7 km/h 24.1 km/h 52% 0.0 mm 598 W/m2
16:18 21.5 °C 10.6 °C 1017.6 hPa West 6.4 km/h 17.7 km/h 50% 0.0 mm 659 W/m2
16:23 21.6 °C 11.3 °C 1017.6 hPa West 3.2 km/h 17.7 km/h 52% 0.0 mm 645 W/m2
16:28 21.6 °C 11.3 °C 1017.6 hPa WNW 11.1 km/h 17.7 km/h 52% 0.0 mm 650 W/m2
16:33 21.6 °C 11.6 °C 1017.3 hPa North 1.4 km/h 12.9 km/h 53% 0.0 mm 789 W/m2
16:38 21.7 °C 11.4 °C 1017.6 hPa West 11.1 km/h 14.5 km/h 52% 0.0 mm 698 W/m2
16:43 21.9 °C 11.3 °C 1017.3 hPa West 9.7 km/h 9.7 km/h 51% 0.0 mm 253 W/m2
16:48 21.9 °C 11.3 °C 1017.3 hPa WNW 11.1 km/h 11.3 km/h 51% 0.0 mm 833 W/m2
16:53 22 °C 11.4 °C 1017.3 hPa West 3.2 km/h 14.5 km/h 51% 0.0 mm 759 W/m2
16:58 22.1 °C 11.2 °C 1017.3 hPa West 13 km/h 14.5 km/h 50% 0.0 mm 654 W/m2
17:03 21.8 °C 10.9 °C 1017.3 hPa WNW 14.3 km/h 19.3 km/h 50% 0.0 mm 366 W/m2
17:08 21.4 °C 10.8 °C 1017.3 hPa WNW 16.3 km/h 20.9 km/h 51% 0.0 mm 396 W/m2
17:13 21.4 °C 11.1 °C 1017.3 hPa WSW 4.7 km/h 9.7 km/h 52% 0.0 mm 487 W/m2
17:18 21.3 °C 10.8 °C 1017.3 hPa West 13 km/h 17.7 km/h 51% 0.0 mm 339 W/m2
17:23 21.1 °C 10.9 °C 1017.3 hPa NW 13 km/h 17.7 km/h 52% 0.0 mm 550 W/m2
17:28 21.2 °C 11 °C 1017.3 hPa West 6.4 km/h 14.5 km/h 52% 0.0 mm 596 W/m2
17:33 21.3 °C 11.3 °C 1017.3 hPa North 4.7 km/h 9.7 km/h 53% 0.0 mm 330 W/m2
17:38 21.3 °C 11 °C 1017.3 hPa West 9.7 km/h 11.3 km/h 52% 0.0 mm 459 W/m2
17:43 21.4 °C 11.1 °C 1017.3 hPa West 11.1 km/h 19.3 km/h 52% 0.0 mm 234 W/m2
17:48 21.2 °C 11.2 °C 1017.3 hPa WNW 13 km/h 17.7 km/h 53% 0.0 mm 517 W/m2
17:53 21.2 °C 11.2 °C 1017.3 hPa WNW 13 km/h 19.3 km/h 53% 0.0 mm 348 W/m2
17:58 21.1 °C 11.1 °C 1017.3 hPa WNW 4.7 km/h 12.9 km/h 53% 0.0 mm 345 W/m2
18:03 21.1 °C 11.1 °C 1017.3 hPa West 4.7 km/h 17.7 km/h 53% 0.0 mm 244 W/m2
18:08 20.9 °C 11.2 °C 1017.3 hPa WSW 4.7 km/h 8 km/h 54% 0.0 mm 265 W/m2
18:13 20.9 °C 11.2 °C 1016.9 hPa WNW 3.2 km/h 6.4 km/h 54% 0.0 mm 236 W/m2
18:18 20.9 °C 11.2 °C 1017.3 hPa SW 9.7 km/h 14.5 km/h 54% 0.0 mm 241 W/m2
18:23 20.9 °C 11.2 °C 1016.9 hPa SW 4.7 km/h 11.3 km/h 54% 0.0 mm 213 W/m2
18:28 20.8 °C 11.4 °C 1017.3 hPa WNW 4.7 km/h 6.4 km/h 55% 0.0 mm 188 W/m2
18:33 20.8 °C 11.2 °C 1016.9 hPa West 11.1 km/h 16.1 km/h 54% 0.0 mm 183 W/m2
18:38 20.7 °C 11.3 °C 1016.9 hPa WSW 6.4 km/h 6.4 km/h 55% 0.0 mm 172 W/m2
18:43 20.7 °C 11.1 °C 1016.9 hPa NW 9.7 km/h 16.1 km/h 54% 0.0 mm 171 W/m2
18:48 20.6 °C 11 °C 1016.9 hPa WNW 13 km/h 12.9 km/h 54% 0.0 mm 153 W/m2
18:53 20.6 °C 11.2 °C 1016.9 hPa West 9.7 km/h 11.3 km/h 55% 0.0 mm 151 W/m2
18:58 20.5 °C 11.4 °C 1016.9 hPa WSW 6.4 km/h 12.9 km/h 56% 0.0 mm 144 W/m2
19:08 20.3 °C 11.2 °C 1016.6 hPa West 6.4 km/h 8 km/h 56% 0.0 mm 123 W/m2
19:13 20.3 °C 11.5 °C 1016.6 hPa WNW 1.4 km/h 6.4 km/h 57% 0.0 mm 120 W/m2
19:18 20.2 °C 11.1 °C 1016.6 hPa West 4.7 km/h 11.3 km/h 56% 0.0 mm 128 W/m2
19:23 20.3 °C 11.5 °C 1016.6 hPa WSW 3.2 km/h 9.7 km/h 57% 0.0 mm 121 W/m2
19:28 20.3 °C 11.5 °C 1016.9 hPa NW 11.1 km/h 11.3 km/h 57% 0.0 mm 104 W/m2
19:33 20.2 °C 11.1 °C 1016.9 hPa NW 7.9 km/h 12.9 km/h 56% 0.0 mm 84 W/m2
19:38 20.1 °C 11.3 °C 1016.9 hPa WNW 6.4 km/h 8 km/h 57% 0.0 mm 77 W/m2
19:43 19.9 °C 11.4 °C 1016.9 hPa WSW 3.2 km/h 9.7 km/h 58% 0.0 mm 86 W/m2
19:48 19.9 °C 11.6 °C 1016.9 hPa West 4.7 km/h 4.8 km/h 59% 0.0 mm 88 W/m2
19:53 19.8 °C 11.6 °C 1016.9 hPa West 6.4 km/h 6.4 km/h 59% 0.0 mm 111 W/m2
19:58 19.8 °C 11.6 °C 1016.9 hPa Calm   6.4 km/h 59% 0.0 mm 93 W/m2
20:03 19.8 °C 11.6 °C 1016.9 hPa West 4.7 km/h 6.4 km/h 59% 0.0 mm 76 W/m2
20:08 19.7 °C 11.7 °C 1016.9 hPa NW 11.1 km/h 11.3 km/h 60% 0.0 mm 63 W/m2
20:13 19.6 °C 11.6 °C 1016.9 hPa WSW 6.4 km/h 8 km/h 60% 0.0 mm 60 W/m2
20:23 19.4 °C 11.7 °C 1017.3 hPa WSW 7.9 km/h 8 km/h 61% 0.0 mm 53 W/m2
20:28 19.3 °C 11.6 °C 1017.3 hPa WNW 1.4 km/h 4.8 km/h 61% 0.0 mm 42 W/m2
20:33 19.3 °C 11.6 °C 1017.3 hPa West 4.7 km/h 4.8 km/h 61% 0.0 mm 37 W/m2
20:38 19.2 °C 11.5 °C 1017.3 hPa NNW 1.4 km/h 4.8 km/h 61% 0.0 mm 32 W/m2
20:43 19.1 °C 11.4 °C 1017.3 hPa Calm   4.8 km/h 61% 0.0 mm 25 W/m2
20:48 19 °C 11.6 °C 1017.3 hPa West 3.2 km/h 9.7 km/h 62% 0.0 mm 25 W/m2
20:53 18.8 °C 11.4 °C 1017.3 hPa West 6.4 km/h 6.4 km/h 62% 0.0 mm 25 W/m2
20:58 18.7 °C 11.3 °C 1017.3 hPa WSW 1.4 km/h 6.4 km/h 62% 0.0 mm 19 W/m2
21:03 18.6 °C 11.4 °C 1017.3 hPa West 3.2 km/h 9.7 km/h 63% 0.0 mm 18 W/m2
21:08 18.4 °C 11.2 °C 1017.6 hPa West 4.7 km/h 11.3 km/h 63% 0.0 mm 11 W/m2
21:13 18.3 °C 11.1 °C 1017.6 hPa West 4.7 km/h 9.7 km/h 63% 0.0 mm 5 W/m2
21:18 18.3 °C 11.1 °C 1017.6 hPa West 4.7 km/h 11.3 km/h 63% 0.0 mm 0 W/m2
21:23 18.2 °C 11 °C 1017.6 hPa West 4.7 km/h 6.4 km/h 63% 0.0 mm 0 W/m2
21:28 18.1 °C 10.9 °C 1018.0 hPa West 6.4 km/h 11.3 km/h 63% 0.0 mm 0 W/m2
21:33 17.9 °C 10.8 °C 1018.0 hPa West 3.2 km/h 11.3 km/h 63% 0.0 mm 0 W/m2
21:38 17.8 °C 10.9 °C 1018.0 hPa West 3.2 km/h 6.4 km/h 64% 0.0 mm 0 W/m2
21:43 17.7 °C 10.8 °C 1018.0 hPa West 3.2 km/h 11.3 km/h 64% 0.0 mm 0 W/m2
21:48 17.6 °C 10.9 °C 1018.0 hPa WSW 3.2 km/h 6.4 km/h 65% 0.0 mm 0 W/m2
21:53 17.4 °C 10.8 °C 1018.0 hPa SW 4.7 km/h 11.3 km/h 65% 0.0 mm 0 W/m2
21:58 17.3 °C 10.7 °C 1018.3 hPa WSW 6.4 km/h 6.4 km/h 65% 0.0 mm 0 W/m2
22:03 17.3 °C 10.9 °C 1018.3 hPa West 3.2 km/h 9.7 km/h 66% 0.0 mm 0 W/m2
22:08 17.2 °C 10.8 °C 1018.3 hPa WNW 3.2 km/h 9.7 km/h 66% 0.0 mm 0 W/m2
22:13 17.1 °C 10.9 °C 1018.3 hPa WSW 3.2 km/h 9.7 km/h 67% 0.0 mm 0 W/m2
22:18 17.1 °C 10.9 °C 1018.3 hPa WSW 6.4 km/h 8 km/h 67% 0.0 mm 0 W/m2
22:23 17 °C 10.8 °C 1018.3 hPa West 4.7 km/h 6.4 km/h 67% 0.0 mm 0 W/m2
22:29 16.9 °C 10.7 °C 1018.3 hPa West 1.4 km/h 6.4 km/h 67% 0.0 mm 0 W/m2
22:34 16.9 °C 11 °C 1018.3 hPa West 4.7 km/h 9.7 km/h 68% 0.0 mm 0 W/m2
22:39 16.9 °C 11 °C 1018.3 hPa SW 7.9 km/h 12.9 km/h 68% 0.0 mm 0 W/m2
22:44 16.9 °C 11 °C 1018.3 hPa West 3.2 km/h 4.8 km/h 68% 0.0 mm 0 W/m2
22:49 16.9 °C 11 °C 1018.3 hPa Calm   12.9 km/h 68% 0.0 mm 0 W/m2
22:54 16.8 °C 10.9 °C 1018.3 hPa West 3.2 km/h 3.2 km/h 68% 0.0 mm 0 W/m2
22:59 16.8 °C 10.9 °C 1018.3 hPa West 3.2 km/h 3.2 km/h 68% 0.0 mm 0 W/m2
23:04 16.7 °C 11 °C 1018.3 hPa West 1.4 km/h 3.2 km/h 69% 0.0 mm 0 W/m2
23:09 16.7 °C 11 °C 1018.3 hPa West 1.4 km/h 3.2 km/h 69% 0.0 mm 0 W/m2
23:14 16.5 °C 11 °C 1018.3 hPa Calm   1.6 km/h 70% 0.0 mm 0 W/m2
23:19 16.4 °C 10.9 °C 1018.6 hPa Calm   1.6 km/h 70% 0.0 mm 0 W/m2
23:24 16.4 °C 10.9 °C 1018.6 hPa NNW 1.4 km/h 4.8 km/h 70% 0.0 mm 0 W/m2
23:29 16.4 °C 10.9 °C 1018.6 hPa Calm   1.6 km/h 70% 0.0 mm 0 W/m2
23:34 16.3 °C 11 °C 1018.6 hPa Calm   4.8 km/h 71% 0.0 mm 0 W/m2
23:39 16.2 °C 10.9 °C 1018.6 hPa Calm     71% 0.0 mm 0 W/m2
23:44 16.1 °C 10.8 °C 1018.6 hPa WNW 1.4 km/h 4.8 km/h 71% 0.0 mm 0 W/m2
23:49 16 °C 11 °C 1018.6 hPa WNW 3.2 km/h 3.2 km/h 72% 0.0 mm 0 W/m2
23:54 15.9 °C 10.9 °C 1018.6 hPa WNW 1.4 km/h 4.8 km/h 72% 0.0 mm 0 W/m2
23:59 15.8 °C 10.8 °C 1018.3 hPa WNW 1.4 km/h 3.2 km/h 72% 0.0 mm 0 W/m2
Juneau County Weather
Compliments of Weather Underground - 4 mb